Flag for U.S.A. Weather past 2 weeks in Warminster Township, Pennsylvania, U.S.A.

Now
17 °F

Overcast.


Feels Like: 9 °F
Forecast: 15 / 23 °F
Wind: 6 mph from North

Location: Doylestown Airport

Current Time: Feb 27, 2015 at 8:40:03 AM

Latest Report: Feb 27, 2015 at 7:54 AM


Visibility: 10 mi

Pressure: 30.37 "Hg

Humidity: 68%

Dew point: 8 °F

Location of Warminster TownshipLocation

Historic Weather in Warminster Township — Graph

°F

Warminster Township temperature yesterday

Maximum temperature yesterday: 28 °F (at 1:54 PM)
Minimum temperature yesterday: 19 °F (at 10:54 PM)
Average temperature yesterday: 23 °F

Past Weeks' High & Low Weather Summary

 TemperatureHumidityPressure
High42 °F (Feb 22, 2:54 PM)100% (Feb 14, 7:54 PM)30.52 "Hg (Feb 14, 7:54 PM)
Low-3 °F (Feb 20, 6:54 AM)28% (Feb 24, 3:54 PM)29.49 "Hg (Feb 14, 8:54 PM)
Average17 °F63%30.06 "Hg
* Reported Feb 12 6:54 AM — Feb 27 6:54 AM, Warminster Township, Weather by CustomWeather, © 2015

Note: Actual official high and low records may vary slightly from our data, if they occured in-between our weather recording intervals... More about our weather records

Advertising

Warminster Township weather history for previous 24 hours

 ConditionsComfort  
Time TempWeatherWind HumidityBarometerVisibility
6:54 AM
Fri, Feb 27
17 °FMostly cloudy.7 mph64%30.34 "Hg10 mi
5:54 AM18 °FOvercast.6 mph71%30.32 "Hg10 mi
4:54 AM19 °FOvercast.9 mph71%30.27 "Hg10 mi
3:54 AM19 °FMostly cloudy.8 mph71%30.24 "Hg10 mi
2:54 AM19 °FMostly cloudy.6 mph74%30.23 "Hg10 mi
1:54 AM20 °FOvercast.3 mph74%30.20 "Hg10 mi
12:54 AM19 °FClear.3 mph77%30.18 "Hg10 mi
11:54 PM
Thu, Feb 26
20 °FPassing clouds.3 mph78%30.16 "Hg10 mi
10:54 PM19 °FPassing clouds.No wind85%30.15 "Hg10 mi
9:54 PM20 °FClear.No wind82%30.14 "Hg10 mi
8:54 PM21 °FPassing clouds.No wind78%30.12 "Hg10 mi
7:54 PM22 °FClear.No wind75%30.09 "Hg10 mi
6:54 PM24 °FOvercast.No wind68%30.06 "Hg10 mi
5:54 PM24 °FOvercast.No wind68%30.04 "Hg10 mi
4:54 PM25 °FOvercast.7 mph66%30.02 "Hg10 mi
3:54 PM25 °FOvercast.5 mph66%29.99 "Hg10 mi
2:54 PM26 °FOvercast.8 mph66%29.96 "Hg10 mi
1:54 PM28 °FOvercast.9 mph61%29.92 "Hg10 mi
12:54 PM27 °FOvercast.10 mph63%29.93 "Hg10 mi
11:54 AM26 °FPartly sunny.7 mph60%29.96 "Hg10 mi
10:54 AM23 °FLight snow. Overcast.9 mph65%29.99 "Hg6 mi
9:54 AM23 °FMostly cloudy.8 mph46%30.00 "Hg10 mi
8:54 AM22 °FOvercast.9 mph46%29.99 "Hg10 mi
Weather by CustomWeather, © 2015

See weather overviewHow to use our weather pages